Danbury, CT

2:13 AM EDT on August 19, 2017 (GMT -0400)
Danbury Municipal

Weather History for KDXR - May, 2013

Change the Weather History Date:

Saturday, May 4, 2013

  Actual Average Record
Temperature  
Mean Temperature 54 °F -  
Max Temperature 70 °F 65 °F 88 °F (2001)
Min Temperature 37 °F 44 °F 29 °F (1985)
Degree Days  
Heating Degree Days 12    
Growing Degree Days 4 (Base 50)    
Moisture  
Dew Point 40 °F    
Average Humidity 64    
Maximum Humidity 89    
Minimum Humidity 35    
Precipitation  
Precipitation 0.00 in - - ()
Sea Level Pressure  
Sea Level Pressure 30.30 in    
Wind  
Wind Speed 4 mph (SE)    
Max Wind Speed 15 mph    
Max Gust Speed 23 mph    
Visibility 10 miles    
Events      
Averages and records for this station are not official NWS values.
T = Trace of Precipitation, MM = Missing Value Source: NWS Daily Summary

Daily Weather History Graph

Daily Weather History Graph

Search for Another Location

Airport or City:

Trip Planner

Search our weather history database for the weather conditions in past years. The results will help you decide how hot, cold, wet, or windy it might be!

Date:

Astronomy

May. 04, 2013 Rise Set
Actual Time 5:47 AM EDT 7:54 PM EDT
Civil Twilight 5:16 AM EDT 8:25 PM EDT
Nautical Twilight 4:39 AM EDT 9:02 PM EDT
Astronomical Twilight 3:58 AM EDT 9:43 PM EDT
Moon 2:47 AM EDT (5/4) 2:46 PM EDT (5/4)
Length of Visible Light 15h 08m
Length of Day
14h 07m
Waning Crescent, 27% of the Moon is Illuminated
May 4
Waning Crescent
May 9
New
May 18
First Quarter
May 25
Full
May 31
Last Quarter

Hourly Weather History & Observations

Time (EDT) Temp. Windchill Dew Point Humidity Pressure Visibility Wind Dir Wind Speed Gust Speed Precip Events Conditions
12:53 AM 44.1 °F - 39.9 °F 85% 30.38 in 10.0 mi Calm Calm - N/A   Clear
1:53 AM 42.1 °F 40.2 °F 39.0 °F 89% 30.36 in 10.0 mi WSW 3.5 mph - N/A   Clear
2:53 AM 41.0 °F 39.0 °F 37.9 °F 89% 30.34 in 10.0 mi SW 3.5 mph - N/A   Clear
3:53 AM 41.0 °F 39.0 °F 37.9 °F 89% 30.33 in 9.0 mi WSW 3.5 mph - N/A   Clear
4:53 AM 39.0 °F - 35.1 °F 86% 30.33 in 9.0 mi Calm Calm - N/A   Clear
5:53 AM 37.9 °F - 35.1 °F 89% 30.33 in 9.0 mi Calm Calm - N/A   Clear
6:53 AM 42.1 °F - 39.0 °F 89% 30.33 in 9.0 mi Calm Calm - N/A   Clear
7:53 AM 50.0 °F - 44.1 °F 80% 30.34 in 10.0 mi Calm Calm - N/A   Clear
8:53 AM 55.9 °F - 41.0 °F 57% 30.33 in 10.0 mi East 5.8 mph - N/A   Clear
9:53 AM 60.1 °F - 39.9 °F 47% 30.32 in 10.0 mi NE 5.8 mph - N/A   Clear
10:53 AM 63.0 °F - 43.0 °F 48% 30.31 in 10.0 mi East 9.2 mph - N/A   Clear
11:53 AM 66.0 °F - 39.9 °F 38% 30.29 in 10.0 mi NNE 11.5 mph 16.1 mph N/A   Partly Cloudy
12:53 PM 69.1 °F - 39.9 °F 35% 30.27 in 10.0 mi East 11.5 mph 19.6 mph N/A   Clear
1:53 PM 69.1 °F - 39.9 °F 35% 30.26 in 10.0 mi Variable 6.9 mph - N/A   Clear
2:53 PM 70.0 °F - 41.0 °F 35% 30.24 in 10.0 mi Variable 5.8 mph - N/A   Clear
3:53 PM 66.9 °F - 42.1 °F 40% 30.24 in 10.0 mi SE 12.7 mph - N/A   Clear
4:53 PM 64.0 °F - 43.0 °F 46% 30.24 in 10.0 mi SE 15.0 mph 23.0 mph N/A   Clear
5:53 PM 61.0 °F - 43.0 °F 52% 30.25 in 10.0 mi SE 11.5 mph 19.6 mph N/A   Clear
6:53 PM 57.0 °F - 43.0 °F 59% 30.26 in 10.0 mi SE 8.1 mph - N/A   Clear
7:53 PM 54.0 °F - 41.0 °F 62% 30.28 in 10.0 mi South 4.6 mph - N/A   Clear
8:53 PM 51.1 °F - 39.0 °F 63% 30.30 in 10.0 mi ESE 5.8 mph - N/A   Clear
9:53 PM 48.9 °F - 39.0 °F 69% 30.30 in 10.0 mi Calm Calm - N/A   Clear
10:53 PM 46.0 °F 44.8 °F 39.0 °F 76% 30.30 in 10.0 mi ESE 3.5 mph - N/A   Clear
11:53 PM 43.0 °F - 37.9 °F 82% 30.31 in 9.0 mi Calm Calm - N/A   Clear